| time (UTC) | temp F | wind direction | speed MPH | gust MPH | rain 1hr in | rain 24hr in | rain mn in | humidity % | barometer mb |
| 20260507231530 | 57 | 177 | 3.0 | 3.0 | 0.00 | 0.01 | 0.01 | 78 | 1009.5 |
| 20260507231027 | 57 | 190 | 2.0 | 2.0 | 0.00 | 0.01 | 0.01 | 77 | 1009.4 |
| 20260507230524 | 57 | 176 | 2.0 | 3.0 | 0.00 | 0.01 | 0.01 | 78 | 1009.4 |
| 20260507230021 | 57 | 189 | 4.0 | 6.0 | 0.00 | 0.01 | 0.01 | 77 | 1009.3 |
| 20260507225515 | 58 | 174 | 5.0 | 6.0 | 0.00 | 0.01 | 0.01 | 76 | 1009.2 |
| 20260507225012 | 58 | 177 | 2.0 | 2.0 | 0.00 | 0.01 | 0.01 | 77 | 1009.2 |
| 20260507224508 | 59 | 185 | 3.0 | 3.0 | 0.00 | 0.01 | 0.01 | 76 | 1009.2 |
| 20260507224004 | 59 | 164 | 2.0 | 3.0 | 0.00 | 0.01 | 0.01 | 75 | 1009.2 |
| 20260507223500 | 60 | 181 | 4.0 | 6.0 | 0.00 | 0.01 | 0.01 | 73 | 1009.0 |
| 20260507222958 | 60 | 192 | 6.0 | 7.0 | 0.00 | 0.01 | 0.01 | 72 | 1009.0 |
| 20260507222455 | 62 | 176 | 6.0 | 7.0 | 0.00 | 0.01 | 0.01 | 70 | 1009.0 |
| 20260507221951 | 62 | 171 | 0.0 | 0.0 | 0.00 | 0.01 | 0.01 | 72 | 1008.9 |
| 20260507221448 | 62 | 146 | 1.0 | 4.0 | 0.00 | 0.01 | 0.01 | 70 | 1008.9 |
| 20260507220944 | 63 | 195 | 4.0 | 7.0 | 0.00 | 0.01 | 0.01 | 69 | 1008.8 |
| 20260507220442 | 63 | 167 | 3.0 | 3.0 | 0.00 | 0.01 | 0.01 | 71 | 1008.6 |
| 20260507215938 | 62 | 176 | 0.0 | 1.0 | 0.00 | 0.01 | 0.01 | 69 | 1008.6 |
| 20260507215435 | 62 | 181 | 3.0 | 4.0 | 0.00 | 0.01 | 0.01 | 71 | 1008.7 |
| 20260507214932 | 62 | 158 | 1.0 | 1.0 | 0.00 | 0.01 | 0.01 | 72 | 1008.6 |
| 20260507214430 | 62 | 181 | 4.0 | 7.0 | 0.00 | 0.01 | 0.01 | 70 | 1008.5 |
| 20260507213925 | 62 | 198 | 5.0 | 6.0 | 0.00 | 0.01 | 0.01 | 70 | 1008.5 |
| 20260507213422 | 62 | 197 | 4.0 | 6.0 | 0.00 | 0.01 | 0.01 | 71 | 1008.6 |
| 20260507212919 | 63 | 188 | 6.0 | 9.0 | 0.00 | 0.01 | 0.01 | 69 | 1008.7 |
| 20260507212415 | 64 | 199 | 3.0 | 7.0 | 0.00 | 0.01 | 0.01 | 67 | 1008.7 |
| 20260507211912 | 63 | 170 | 1.0 | 1.0 | 0.00 | 0.01 | 0.01 | 73 | 1008.6 |
| 20260507211408 | 63 | 149 | 4.0 | 7.0 | 0.00 | 0.01 | 0.01 | 70 | 1008.5 |
| 20260507210905 | 62 | 140 | 2.0 | 3.0 | 0.00 | 0.01 | 0.01 | 73 | 1008.4 |
| 20260507210402 | 62 | 177 | 5.0 | 7.0 | 0.00 | 0.01 | 0.01 | 71 | 1008.4 |
| 20260507205859 | 61 | 196 | 5.0 | 6.0 | 0.00 | 0.01 | 0.01 | 71 | 1008.6 |
| 20260507205356 | 60 | 221 | 6.0 | 8.0 | 0.00 | 0.01 | 0.01 | 72 | 1008.5 |
| 20260507204852 | 60 | 182 | 8.0 | 9.0 | 0.00 | 0.01 | 0.01 | 71 | 1008.5 |
| 20260507204349 | 60 | 191 | 6.0 | 7.0 | 0.00 | 0.01 | 0.01 | 73 | 1008.7 |
| 20260507203847 | 61 | 161 | 2.0 | 3.0 | 0.00 | 0.01 | 0.01 | 71 | 1008.7 |
| 20260507203344 | 61 | 157 | 4.0 | 4.0 | 0.00 | 0.01 | 0.01 | 71 | 1008.7 |
| 20260507202840 | 61 | 167 | 3.0 | 3.0 | 0.00 | 0.01 | 0.01 | 72 | 1008.6 |
| 20260507202337 | 61 | 202 | 8.0 | 8.0 | 0.00 | 0.01 | 0.01 | 71 | 1008.7 |
| 20260507201832 | 62 | 205 | 5.0 | 7.0 | 0.00 | 0.01 | 0.01 | 69 | 1008.9 |
| 20260507201328 | 62 | 210 | 6.0 | 6.0 | 0.00 | 0.01 | 0.01 | 72 | 1008.8 |
| 20260507200825 | 61 | 200 | 6.0 | 7.0 | 0.00 | 0.01 | 0.01 | 69 | 1009.0 |
| 20260507200321 | 62 | 210 | 7.0 | 9.0 | 0.00 | 0.01 | 0.01 | 70 | 1008.9 |
| 20260507195817 | 62 | 184 | 7.0 | 10.0 | 0.00 | 0.01 | 0.01 | 72 | 1009.0 |
| 20260507195315 | 61 | 182 | 8.0 | 9.0 | 0.00 | 0.01 | 0.01 | 72 | 1009.1 |
| 20260507194812 | 60 | 166 | 6.0 | 7.0 | 0.00 | 0.01 | 0.01 | 72 | 1009.2 |
| 20260507194308 | 62 | 188 | 4.0 | 4.0 | 0.00 | 0.01 | 0.01 | 69 | 1009.1 |
| 20260507193804 | 62 | 187 | 2.0 | 4.0 | 0.00 | 0.01 | 0.01 | 68 | 1009.2 |
| 20260507193302 | 63 | 191 | 5.0 | 6.0 | 0.00 | 0.01 | 0.01 | 71 | 1009.4 |
| 20260507192757 | 61 | 165 | 2.0 | 3.0 | 0.00 | 0.01 | 0.01 | 74 | 1009.4 |
| 20260507192254 | 61 | 199 | 6.0 | 8.0 | 0.00 | 0.01 | 0.01 | 68 | 1009.6 |
| 20260507191750 | 59 | 165 | 2.0 | 2.0 | 0.00 | 0.01 | 0.01 | 74 | 1009.7 |
| 20260507191247 | 60 | 159 | 4.0 | 6.0 | 0.00 | 0.01 | 0.01 | 72 | 1009.7 |
| 20260507190744 | 60 | 184 | 7.0 | 8.0 | 0.00 | 0.01 | 0.01 | 70 | 1009.6 |
| 20260507190243 | 61 | 168 | 2.0 | 2.0 | 0.00 | 0.01 | 0.01 | 71 | 1009.7 |
| 20260507185741 | 62 | 165 | 6.0 | 8.0 | 0.00 | 0.01 | 0.01 | 70 | 1009.7 |
| 20260507185237 | 61 | 187 | 2.0 | 6.0 | 0.00 | 0.01 | 0.01 | 71 | 1009.6 |
| 20260507184735 | 60 | 103 | 1.0 | 2.0 | 0.00 | 0.01 | 0.01 | 74 | 1009.9 |
| 20260507184233 | 60 | 185 | 5.0 | 8.0 | 0.00 | 0.01 | 0.01 | 77 | 1010.1 |
| 20260507183729 | 61 | 194 | 6.0 | 7.0 | 0.00 | 0.01 | 0.01 | 76 | 1009.7 |
| 20260507183226 | 59 | 165 | 1.0 | 1.0 | 0.00 | 0.01 | 0.01 | 78 | 1010.0 |
| 20260507182723 | 57 | 160 | 3.0 | 3.0 | 0.00 | 0.01 | 0.01 | 76 | 1010.2 |
| 20260507182218 | 58 | 188 | 2.0 | 3.0 | 0.00 | 0.01 | 0.01 | 74 | 1010.1 |
| 20260507181715 | 58 | 188 | 4.0 | 4.0 | 0.00 | 0.01 | 0.01 | 77 | 1010.2 |
| 20260507181212 | 58 | 167 | 4.0 | 7.0 | 0.00 | 0.01 | 0.01 | 77 | 1010.1 |
| 20260507180709 | 58 | 60 | 4.0 | 4.0 | 0.00 | 0.01 | 0.01 | 75 | 1010.3 |
| 20260507180206 | 57 | 163 | 2.0 | 2.0 | 0.00 | 0.01 | 0.01 | 77 | 1010.3 |
| 20260507175701 | 58 | 180 | 7.0 | 9.0 | 0.00 | 0.01 | 0.01 | 74 | 1010.4 |
| 20260507175158 | 59 | 198 | 1.0 | 1.0 | 0.00 | 0.01 | 0.01 | 71 | 1010.4 |
| 20260507174655 | 57 | 157 | 2.0 | 3.0 | 0.00 | 0.01 | 0.01 | 80 | 1010.4 |
| 20260507174154 | 57 | 73 | 3.0 | 3.0 | 0.00 | 0.01 | 0.01 | 74 | 1010.3 |
| 20260507173650 | 57 | 194 | 4.0 | 4.0 | 0.00 | 0.01 | 0.01 | 78 | 1010.5 |
| 20260507173147 | 56 | 186 | 3.0 | 3.0 | 0.00 | 0.01 | 0.01 | 80 | 1010.7 |
| 20260507172644 | 56 | 115 | 0.0 | 1.0 | 0.00 | 0.01 | 0.01 | 79 | 1010.7 |
| 20260507172141 | 56 | 120 | 1.0 | 1.0 | 0.00 | 0.01 | 0.01 | 77 | 1010.6 |
| 20260507171641 | 56 | 137 | 0.0 | 1.0 | 0.00 | 0.01 | 0.01 | 77 | 1010.7 |
| 20260507171138 | 56 | 166 | 0.0 | 1.0 | 0.00 | 0.01 | 0.01 | 78 | 1011.4 |
| 20260507170636 | 55 | 113 | 0.0 | 1.0 | 0.00 | 0.01 | 0.01 | 78 | 1011.0 |
| 20260507170133 | 55 | 152 | 1.0 | 1.0 | 0.00 | 0.01 | 0.01 | 79 | 1011.2 |
| 20260507165628 | 55 | 82 | 1.0 | 2.0 | 0.00 | 0.01 | 0.01 | 77 | 1011.3 |
| 20260507165125 | 55 | 102 | 1.0 | 2.0 | 0.00 | 0.01 | 0.01 | 77 | 1011.3 |
| 20260507164620 | 55 | 137 | 0.0 | 1.0 | 0.00 | 0.01 | 0.01 | 80 | 1011.2 |
| 20260507164118 | 54 | 127 | 1.0 | 1.0 | 0.00 | 0.01 | 0.01 | 82 | 1011.5 |
| 20260507163615 | 54 | 139 | 0.0 | 0.0 | 0.00 | 0.01 | 0.01 | 82 | 1011.6 |
| 20260507163113 | 54 | 131 | 0.0 | 1.0 | 0.00 | 0.01 | 0.01 | 81 | 1011.5 |
| 20260507162608 | 54 | 155 | 1.0 | 1.0 | 0.00 | 0.01 | 0.01 | 81 | 1011.8 |
| 20260507162105 | 54 | 128 | 0.0 | 0.0 | 0.00 | 0.01 | 0.01 | 80 | 1011.7 |
| 20260507161601 | 54 | 121 | 0.0 | 1.0 | 0.00 | 0.01 | 0.01 | 80 | 1011.6 |
| 20260507161058 | 54 | 101 | 1.0 | 2.0 | 0.00 | 0.01 | 0.01 | 80 | 1011.7 |
| 20260507160554 | 55 | 84 | 2.0 | 2.0 | 0.00 | 0.01 | 0.01 | 80 | 1012.0 |
| 20260507160050 | 54 | 83 | 2.0 | 2.0 | 0.00 | 0.01 | 0.01 | 82 | 1011.8 |
| 20260507155546 | 53 | 101 | 3.0 | 3.0 | 0.00 | 0.01 | 0.01 | 81 | 1011.8 |
| 20260507155043 | 53 | 102 | 1.0 | 2.0 | 0.00 | 0.01 | 0.01 | 85 | 1011.9 |
| 20260507154540 | 53 | 105 | 0.0 | 2.0 | 0.00 | 0.01 | 0.01 | 85 | 1012.0 |
| 20260507154037 | 53 | 114 | 0.0 | 1.0 | 0.00 | 0.01 | 0.01 | 84 | 1012.1 |
| 20260507153534 | 53 | 76 | 2.0 | 3.0 | 0.00 | 0.01 | 0.01 | 85 | 1012.4 |
| 20260507153030 | 53 | 80 | 3.0 | 3.0 | 0.00 | 0.01 | 0.01 | 85 | 1012.2 |
| 20260507152526 | 53 | 93 | 1.0 | 2.0 | 0.00 | 0.01 | 0.01 | 85 | 1012.2 |
| 20260507152022 | 53 | 34 | 4.0 | 6.0 | 0.00 | 0.01 | 0.01 | 84 | 1012.1 |
| 20260507151518 | 53 | 44 | 3.0 | 4.0 | 0.00 | 0.01 | 0.01 | 83 | 1012.3 |
| 20260507151016 | 53 | 80 | 2.0 | 3.0 | 0.00 | 0.01 | 0.01 | 83 | 1012.2 |
| 20260507150513 | 53 | 76 | 4.0 | 4.0 | 0.00 | 0.01 | 0.01 | 81 | 1012.4 |
| 20260507150009 | 53 | 45 | 3.0 | 3.0 | 0.00 | 0.01 | 0.01 | 80 | 1012.0 |
| 20260507145504 | 53 | 32 | 5.0 | 7.0 | 0.00 | 0.01 | 0.01 | 81 | 1012.1 |
| 20260507145002 | 53 | 78 | 2.0 | 2.0 | 0.00 | 0.01 | 0.01 | 81 | 1012.1 |
| 20260507144459 | 53 | 27 | 4.0 | 6.0 | 0.00 | 0.01 | 0.01 | 80 | 1012.0 |
| 20260507143955 | 53 | 38 | 3.0 | 3.0 | 0.00 | 0.01 | 0.01 | 81 | 1012.1 |
| 20260507143453 | 53 | 53 | 3.0 | 4.0 | 0.00 | 0.01 | 0.01 | 80 | 1012.1 |
| 20260507142949 | 53 | 34 | 4.0 | 4.0 | 0.00 | 0.01 | 0.01 | 80 | 1012.3 |
| 20260507142445 | 53 | 42 | 3.0 | 4.0 | 0.00 | 0.01 | 0.01 | 80 | 1012.4 |
| 20260507141943 | 53 | 50 | 4.0 | 4.0 | 0.00 | 0.01 | 0.01 | 79 | 1012.6 |
| 20260507141438 | 53 | 41 | 4.0 | 4.0 | 0.00 | 0.01 | 0.01 | 79 | 1012.7 |
| 20260507140935 | 53 | 55 | 4.0 | 4.0 | 0.00 | 0.01 | 0.01 | 80 | 1012.6 |
| 20260507140432 | 53 | 71 | 3.0 | 6.0 | 0.00 | 0.01 | 0.01 | 80 | 1012.6 |
| 20260507135930 | 53 | 23 | 2.0 | 4.0 | 0.00 | 0.01 | 0.01 | 81 | 1012.6 |
| 20260507135426 | 53 | 36 | 3.0 | 3.0 | 0.00 | 0.01 | 0.01 | 80 | 1012.7 |
| 20260507134924 | 53 | 38 | 4.0 | 6.0 | 0.00 | 0.01 | 0.01 | 79 | 1012.7 |
| 20260507134420 | 53 | 20 | 7.0 | 8.0 | 0.00 | 0.01 | 0.01 | 78 | 1012.7 |
| 20260507133916 | 53 | 66 | 3.0 | 3.0 | 0.00 | 0.01 | 0.01 | 79 | 1012.7 |
| 20260507133412 | 53 | 2 | 4.0 | 6.0 | 0.00 | 0.01 | 0.01 | 79 | 1012.6 |
| 20260507132911 | 53 | 51 | 2.0 | 2.0 | 0.00 | 0.01 | 0.01 | 81 | 1012.7 |
| 20260507132407 | 53 | 30 | 4.0 | 4.0 | 0.00 | 0.01 | 0.01 | 82 | 1012.7 |
| 20260507131905 | 53 | 32 | 2.0 | 3.0 | 0.00 | 0.01 | 0.01 | 83 | 1012.7 |
| 20260507131401 | 53 | 93 | 1.0 | 1.0 | 0.00 | 0.01 | 0.01 | 82 | 1012.7 |
| 20260507130858 | 53 | 48 | 3.0 | 3.0 | 0.00 | 0.01 | 0.01 | 81 | 1012.6 |
| 20260507130354 | 53 | 45 | 3.0 | 3.0 | 0.00 | 0.01 | 0.01 | 81 | 1012.5 |
| 20260507125853 | 53 | 64 | 2.0 | 3.0 | 0.00 | 0.01 | 0.01 | 82 | 1012.6 |
| 20260507125350 | 53 | 65 | 4.0 | 4.0 | 0.00 | 0.01 | 0.01 | 81 | 1012.6 |
| 20260507124848 | 53 | 55 | 2.0 | 2.0 | 0.00 | 0.01 | 0.01 | 81 | 1012.8 |
| 20260507124344 | 53 | 52 | 5.0 | 6.0 | 0.00 | 0.01 | 0.01 | 82 | 1012.5 |
| 20260507123843 | 53 | 65 | 2.0 | 2.0 | 0.00 | 0.01 | 0.01 | 83 | 1012.6 |
| 20260507123339 | 53 | 34 | 3.0 | 4.0 | 0.00 | 0.01 | 0.01 | 83 | 1012.7 |
| 20260507122836 | 53 | 39 | 3.0 | 4.0 | 0.00 | 0.01 | 0.01 | 82 | 1012.5 |
| 20260507122331 | 53 | 83 | 2.0 | 2.0 | 0.00 | 0.01 | 0.01 | 83 | 1012.7 |
| 20260507121828 | 53 | 85 | 1.0 | 1.0 | 0.00 | 0.01 | 0.01 | 83 | 1012.5 |
| 20260507121323 | 53 | 44 | 2.0 | 3.0 | 0.00 | 0.01 | 0.01 | 83 | 1012.6 |
| 20260507120820 | 52 | 67 | 2.0 | 2.0 | 0.00 | 0.01 | 0.01 | 84 | 1012.5 |
| 20260507120316 | 52 | 43 | 3.0 | 4.0 | 0.00 | 0.01 | 0.01 | 84 | 1012.3 |
| 20260507115813 | 53 | 81 | 2.0 | 2.0 | 0.00 | 0.01 | 0.01 | 85 | 1012.4 |
| 20260507115308 | 53 | 60 | 2.0 | 2.0 | 0.00 | 0.01 | 0.01 | 84 | 1012.3 |
| 20260507114804 | 52 | 58 | 2.0 | 2.0 | 0.00 | 0.01 | 0.01 | 84 | 1012.6 |
| 20260507114302 | 53 | 47 | 2.0 | 3.0 | 0.00 | 0.01 | 0.01 | 85 | 1012.2 |
| 20260507113759 | 53 | 8 | 3.0 | 3.0 | 0.00 | 0.01 | 0.01 | 86 | 1012.2 |
| 20260507113256 | 52 | 104 | 1.0 | 1.0 | 0.00 | 0.01 | 0.01 | 86 | 1012.3 |
| 20260507112754 | 52 | 97 | 1.0 | 2.0 | 0.00 | 0.01 | 0.01 | 87 | 1012.3 |
| 20260507112250 | 52 | 33 | 2.0 | 3.0 | 0.00 | 0.01 | 0.01 | 88 | 1012.1 |
| 20260507111748 | 52 | 94 | 1.0 | 2.0 | 0.00 | 0.01 | 0.01 | 88 | 1012.2 |
| 20260507111244 | 52 | 33 | 4.0 | 4.0 | 0.00 | 0.01 | 0.01 | 89 | 1012.2 |
| 20260507110741 | 52 | 78 | 2.0 | 3.0 | 0.00 | 0.01 | 0.01 | 89 | 1012.0 |
| 20260507110237 | 52 | 14 | 3.0 | 3.0 | 0.00 | 0.01 | 0.01 | 90 | 1011.9 |
| 20260507105734 | 52 | 46 | 4.0 | 4.0 | 0.00 | 0.01 | 0.01 | 90 | 1011.7 |
| 20260507105230 | 52 | 100 | 2.0 | 2.0 | 0.00 | 0.01 | 0.01 | 91 | 1012.0 |
| 20260507104727 | 52 | 62 | 4.0 | 4.0 | 0.00 | 0.01 | 0.01 | 91 | 1011.6 |
| 20260507104224 | 52 | 54 | 2.0 | 2.0 | 0.00 | 0.01 | 0.01 | 91 | 1011.7 |
| 20260507103720 | 52 | 65 | 2.0 | 3.0 | 0.00 | 0.01 | 0.01 | 92 | 1011.9 |
| 20260507103216 | 52 | 22 | 4.0 | 4.0 | 0.00 | 0.01 | 0.01 | 92 | 1011.7 |
| 20260507102713 | 52 | 84 | 2.0 | 2.0 | 0.00 | 0.01 | 0.01 | 92 | 1011.4 |
| 20260507102210 | 52 | 59 | 2.0 | 3.0 | 0.00 | 0.01 | 0.01 | 92 | 1011.4 |
| 20260507101706 | 52 | 86 | 2.0 | 3.0 | 0.00 | 0.01 | 0.01 | 92 | 1011.7 |
| 20260507101201 | 52 | 42 | 3.0 | 4.0 | 0.00 | 0.01 | 0.01 | 92 | 1011.6 |
| 20260507100659 | 52 | 52 | 5.0 | 7.0 | 0.00 | 0.01 | 0.01 | 92 | 1011.7 |
| 20260507100157 | 52 | 49 | 4.0 | 4.0 | 0.00 | 0.01 | 0.01 | 92 | 1011.8 |
| 20260507095655 | 52 | 36 | 3.0 | 3.0 | 0.00 | 0.01 | 0.01 | 92 | 1011.5 |
| 20260507095151 | 52 | 62 | 2.0 | 3.0 | 0.00 | 0.01 | 0.01 | 92 | 1011.5 |
| 20260507094647 | 52 | 59 | 3.0 | 3.0 | 0.00 | 0.01 | 0.01 | 92 | 1011.7 |
| 20260507094144 | 52 | 67 | 5.0 | 7.0 | 0.00 | 0.01 | 0.01 | 92 | 1011.5 |
| 20260507093642 | 53 | 39 | 4.0 | 4.0 | 0.00 | 0.01 | 0.01 | 92 | 1011.5 |
| 20260507093141 | 53 | 45 | 2.0 | 3.0 | 0.00 | 0.01 | 0.01 | 92 | 1011.5 |
| 20260507092637 | 53 | 24 | 4.0 | 4.0 | 0.00 | 0.01 | 0.01 | 92 | 1011.5 |
| 20260507092133 | 53 | 61 | 2.0 | 2.0 | 0.00 | 0.01 | 0.01 | 91 | 1011.2 |
| 20260507091630 | 53 | 33 | 4.0 | 4.0 | 0.00 | 0.01 | 0.01 | 90 | 1011.3 |
| 20260507091126 | 53 | 110 | 1.0 | 1.0 | 0.00 | 0.01 | 0.01 | 89 | 1011.7 |
| 20260507090622 | 53 | 42 | 4.0 | 4.0 | 0.00 | 0.01 | 0.01 | 88 | 1011.4 |
| 20260507090119 | 53 | 45 | 4.0 | 4.0 | 0.00 | 0.01 | 0.01 | 88 | 1011.4 |
| 20260507085616 | 53 | 35 | 6.0 | 7.0 | 0.00 | 0.01 | 0.01 | 88 | 1011.3 |
| 20260507085112 | 53 | 54 | 3.0 | 6.0 | 0.00 | 0.01 | 0.01 | 88 | 1011.4 |
| 20260507084609 | 53 | 349 | 6.0 | 8.0 | 0.00 | 0.01 | 0.01 | 88 | 1011.4 |
| 20260507084106 | 53 | 34 | 6.0 | 7.0 | 0.00 | 0.01 | 0.01 | 88 | 1011.3 |
| 20260507083603 | 53 | 48 | 6.0 | 8.0 | 0.00 | 0.01 | 0.01 | 89 | 1011.1 |
| 20260507083100 | 54 | 41 | 5.0 | 6.0 | 0.00 | 0.01 | 0.01 | 90 | 1011.3 |
| 20260507082555 | 54 | 100 | 3.0 | 4.0 | 0.00 | 0.01 | 0.01 | 91 | 1011.0 |
| 20260507082052 | 54 | 20 | 5.0 | 8.0 | 0.00 | 0.01 | 0.01 | 92 | 1011.2 |
| 20260507081548 | 54 | 24 | 4.0 | 4.0 | 0.00 | 0.01 | 0.01 | 93 | 1011.2 |
| 20260507081046 | 54 | 45 | 6.0 | 9.0 | 0.00 | 0.01 | 0.01 | 93 | 1011.1 |
| 20260507080541 | 54 | 57 | 4.0 | 6.0 | 0.00 | 0.01 | 0.01 | 93 | 1011.1 |
| 20260507080038 | 54 | 43 | 9.0 | 10.0 | 0.00 | 0.01 | 0.01 | 93 | 1011.2 |
| 20260507075533 | 55 | 25 | 5.0 | 6.0 | 0.00 | 0.01 | 0.01 | 94 | 1011.0 |
| 20260507075030 | 55 | 46 | 5.0 | 6.0 | 0.00 | 0.01 | 0.01 | 94 | 1011.3 |
| 20260507074526 | 55 | 67 | 2.0 | 2.0 | 0.00 | 0.01 | 0.01 | 94 | 1011.2 |
| 20260507074025 | 55 | 84 | 1.0 | 2.0 | 0.00 | 0.01 | 0.01 | 94 | 1011.4 |
| 20260507073521 | 55 | 91 | 2.0 | 3.0 | 0.00 | 0.01 | 0.01 | 94 | 1011.2 |
| 20260507073018 | 55 | 118 | 0.0 | 1.0 | 0.00 | 0.01 | 0.01 | 94 | 1011.2 |
| 20260507072515 | 56 | 68 | 2.0 | 3.0 | 0.00 | 0.01 | 0.01 | 94 | 1010.7 |
| 20260507072012 | 56 | 63 | 2.0 | 3.0 | 0.00 | 0.01 | 0.01 | 94 | 1011.0 |
| 20260507071509 | 56 | 43 | 3.0 | 3.0 | 0.00 | 0.01 | 0.01 | 94 | 1010.7 |
| 20260507071006 | 56 | 28 | 3.0 | 3.0 | 0.00 | 0.01 | 0.01 | 94 | 1010.6 |
| 20260507070503 | 56 | 38 | 4.0 | 4.0 | 0.00 | 0.01 | 0.01 | 93 | 1010.4 |
| 20260507070000 | 57 | 56 | 4.0 | 4.0 | 0.00 | 0.01 | 0.01 | 93 | 1010.5 |
| 20260507065456 | 57 | 61 | 4.0 | 4.0 | 0.00 | 0.01 | 0.01 | 92 | 1010.9 |
| 20260507064954 | 57 | 59 | 5.0 | 7.0 | 0.00 | 0.01 | 0.01 | 92 | 1010.5 |
| 20260507064452 | 57 | 38 | 4.0 | 7.0 | 0.00 | 0.01 | 0.01 | 91 | 1010.5 |
| 20260507063949 | 57 | 29 | 6.0 | 9.0 | 0.00 | 0.01 | 0.01 | 91 | 1010.5 |
| 20260507063446 | 57 | 51 | 4.0 | 4.0 | 0.00 | 0.01 | 0.01 | 91 | 1010.3 |
| 20260507062943 | 57 | 24 | 9.0 | 10.0 | 0.00 | 0.01 | 0.01 | 92 | 1010.6 |
| 20260507062441 | 58 | 44 | 8.0 | 9.0 | 0.00 | 0.01 | 0.01 | 93 | 1010.9 |
| 20260507061938 | 59 | 22 | 4.0 | 6.0 | 0.00 | 0.01 | 0.01 | 95 | 1010.9 |
| 20260507061436 | 59 | 65 | 2.0 | 2.0 | 0.00 | 0.01 | 0.01 | 95 | 1010.9 |
| 20260507060934 | 59 | 45 | 3.0 | 6.0 | 0.00 | 0.01 | 0.01 | 96 | 1010.4 |
| 20260507060430 | 60 | 56 | 3.0 | 3.0 | 0.00 | 0.01 | 0.01 | 96 | 1010.5 |
| 20260507055927 | 60 | 84 | 2.0 | 3.0 | 0.00 | 0.01 | 0.01 | 96 | 1010.6 |
| 20260507055422 | 60 | 103 | 1.0 | 2.0 | 0.00 | 0.01 | 0.01 | 96 | 1010.7 |
| 20260507054920 | 60 | 126 | 0.0 | 1.0 | 0.00 | 0.01 | 0.01 | 96 | 1010.9 |
| 20260507054415 | 60 | 67 | 3.0 | 3.0 | 0.00 | 0.01 | 0.01 | 96 | 1010.9 |
| 20260507053913 | 60 | 73 | 2.0 | 2.0 | 0.00 | 0.01 | 0.01 | 96 | 1011.0 |
| 20260507053410 | 60 | 102 | 2.0 | 2.0 | 0.00 | 0.01 | 0.01 | 96 | 1010.7 |
| 20260507052909 | 60 | 105 | 2.0 | 2.0 | 0.00 | 0.01 | 0.01 | 96 | 1011.1 |
| 20260507052406 | 60 | 126 | 0.0 | 0.0 | 0.00 | 0.01 | 0.01 | 95 | 1011.1 |
| 20260507051903 | 60 | 126 | 0.0 | 0.0 | 0.00 | 0.01 | 0.01 | 95 | 1010.7 |
| 20260507051401 | 60 | 123 | 0.0 | 0.0 | 0.00 | 0.01 | 0.01 | 95 | 1010.3 |
| 20260507050857 | 60 | 141 | 1.0 | 1.0 | 0.00 | 0.01 | 0.01 | 95 | 1010.5 |
| 20260507050354 | 61 | 147 | 1.0 | 1.0 | 0.00 | 0.01 | 0.01 | 95 | 1010.5 |
| 20260507045851 | 61 | 132 | 0.0 | 0.0 | 0.00 | 0.01 | 0.01 | 95 | 1010.2 |
| 20260507045347 | 61 | 131 | 1.0 | 1.0 | 0.00 | 0.01 | 0.01 | 95 | 1010.1 |
| 20260507044845 | 61 | 350 | 2.0 | 3.0 | 0.00 | 0.01 | 0.01 | 94 | 1010.0 |
| 20260507044341 | 61 | 121 | 1.0 | 2.0 | 0.00 | 0.01 | 0.01 | 94 | 1009.5 |
| 20260507043837 | 61 | 92 | 2.0 | 3.0 | 0.00 | 0.01 | 0.01 | 94 | 1009.0 |
| 20260507043334 | 62 | 96 | 2.0 | 2.0 | 0.05 | 0.01 | 0.01 | 93 | 1009.2 |
| 20260507042830 | 62 | 99 | 2.0 | 3.0 | 0.05 | 0.01 | 0.01 | 93 | 1009.7 |
| 20260507042326 | 62 | 126 | 0.0 | 0.0 | 0.00 | 0.00 | 0.00 | 93 | 1010.2 |
| 20260507041823 | 62 | 126 | 0.0 | 0.0 | 0.00 | 0.00 | 0.00 | 92 | 1010.5 |
| 20260507041319 | 62 | 125 | 0.0 | 0.0 | 0.00 | 0.00 | 0.00 | 92 | 1010.3 |
| 20260507040816 | 62 | 155 | 0.0 | 1.0 | 0.00 | 0.00 | 0.00 | 92 | 1010.4 |
| 20260507040312 | 62 | 190 | 0.0 | 0.0 | 0.00 | 0.00 | 0.00 | 91 | 1010.5 |
| 20260507035808 | 62 | 219 | 2.0 | 3.0 | 0.00 | 0.07 | 0.07 | 91 | 1010.4 |
| 20260507035306 | 63 | 107 | 2.0 | 2.0 | 0.24 | 0.07 | 0.07 | 89 | 1010.3 |
| 20260507034802 | 64 | 193 | 0.0 | 1.0 | 0.24 | 0.07 | 0.07 | 88 | 1010.9 |
| 20260507034258 | 64 | 193 | 0.0 | 0.0 | 0.00 | 0.03 | 0.03 | 87 | 1011.0 |
| 20260507033757 | 64 | 193 | 0.0 | 0.0 | 0.00 | 0.03 | 0.03 | 86 | 1010.6 |
| 20260507033254 | 64 | 192 | 1.0 | 1.0 | 0.00 | 0.03 | 0.03 | 86 | 1010.5 |
| 20260507032751 | 64 | 203 | 2.0 | 2.0 | 0.00 | 0.03 | 0.03 | 84 | 1010.9 |
| 20260507032247 | 64 | 177 | 2.0 | 2.0 | 0.00 | 0.03 | 0.03 | 84 | 1010.3 |
| 20260507031743 | 64 | 193 | 1.0 | 1.0 | 0.00 | 0.03 | 0.03 | 83 | 1010.6 |
| 20260507031241 | 64 | 202 | 2.0 | 2.0 | 0.00 | 0.03 | 0.03 | 83 | 1010.5 |
| 20260507030737 | 65 | 212 | 4.0 | 4.0 | 0.00 | 0.03 | 0.03 | 84 | 1010.6 |
| 20260507030235 | 65 | 204 | 2.0 | 2.0 | 0.00 | 0.03 | 0.03 | 84 | 1010.4 |
| 20260507025732 | 65 | 195 | 1.0 | 2.0 | 0.00 | 0.03 | 0.03 | 84 | 1010.4 |
| 20260507025229 | 65 | 202 | 2.0 | 2.0 | 0.00 | 0.03 | 0.03 | 84 | 1010.1 |
| 20260507024727 | 65 | 217 | 2.0 | 3.0 | 0.00 | 0.03 | 0.03 | 84 | 1010.0 |
| 20260507024224 | 65 | 206 | 2.0 | 2.0 | 0.00 | 0.03 | 0.03 | 87 | 1010.3 |
| 20260507023720 | 65 | 189 | 2.0 | 2.0 | 0.00 | 0.03 | 0.03 | 87 | 1010.3 |
| 20260507023217 | 65 | 214 | 0.0 | 0.0 | 0.00 | 0.03 | 0.03 | 86 | 1010.1 |
| 20260507022714 | 66 | 191 | 0.0 | 0.0 | 0.07 | 0.03 | 0.03 | 86 | 1010.1 |
| 20260507022210 | 66 | 193 | 2.0 | 2.0 | 0.12 | 0.03 | 0.03 | 84 | 1009.9 |
| 20260507021706 | 67 | 213 | 2.0 | 3.0 | 0.05 | 0.02 | 0.02 | 81 | 1010.0 |
| 20260507021201 | 68 | 172 | 1.0 | 1.0 | 0.00 | 0.01 | 0.01 | 78 | 1009.9 |
| 20260507020701 | 68 | 190 | 0.0 | 0.0 | 0.00 | 0.01 | 0.01 | 77 | 1009.8 |
| 20260507020156 | 68 | 190 | 0.0 | 0.0 | 0.00 | 0.01 | 0.01 | 77 | 1009.8 |
| 20260507015654 | 68 | 190 | 0.0 | 0.0 | 0.00 | 0.01 | 0.01 | 76 | 1009.6 |
| 20260507015151 | 68 | 190 | 0.0 | 1.0 | 0.00 | 0.01 | 0.01 | 76 | 1009.4 |
| 20260507014648 | 68 | 188 | 1.0 | 1.0 | 0.00 | 0.01 | 0.01 | 76 | 1009.4 |
| 20260507014144 | 68 | 187 | 0.0 | 0.0 | 0.00 | 0.01 | 0.01 | 77 | 1009.4 |
| 20260507013641 | 68 | 186 | 1.0 | 1.0 | 0.00 | 0.01 | 0.01 | 76 | 1009.4 |
| 20260507013138 | 68 | 193 | 2.0 | 2.0 | 0.00 | 0.01 | 0.01 | 76 | 1009.0 |
| 20260507012635 | 68 | 193 | 1.0 | 1.0 | 0.00 | 0.01 | 0.01 | 75 | 1009.2 |
| 20260507012130 | 68 | 194 | 0.0 | 0.0 | 0.00 | 0.01 | 0.01 | 73 | 1009.4 |
| 20260507011629 | 69 | 194 | 0.0 | 0.0 | 0.00 | 0.01 | 0.01 | 73 | 1009.3 |
| 20260507011125 | 69 | 194 | 1.0 | 1.0 | 0.00 | 0.01 | 0.01 | 72 | 1009.4 |
| 20260507010620 | 69 | 191 | 1.0 | 1.0 | 0.00 | 0.01 | 0.01 | 72 | 1009.5 |
| 20260507010116 | 69 | 205 | 2.0 | 2.0 | 0.00 | 0.01 | 0.01 | 72 | 1009.7 |
| 20260507005614 | 69 | 205 | 3.0 | 3.0 | 0.00 | 0.01 | 0.01 | 72 | 1009.7 |
| 20260507005109 | 70 | 193 | 2.0 | 2.0 | 0.00 | 0.01 | 0.01 | 71 | 1009.7 |
| 20260507004607 | 70 | 189 | 2.0 | 3.0 | 0.00 | 0.01 | 0.01 | 71 | 1009.7 |
| 20260507004104 | 70 | 219 | 4.0 | 4.0 | 0.00 | 0.01 | 0.01 | 71 | 1009.7 |
| 20260507003600 | 70 | 195 | 3.0 | 3.0 | 0.00 | 0.01 | 0.01 | 71 | 1009.6 |
| 20260507003055 | 70 | 198 | 3.0 | 4.0 | 0.00 | 0.01 | 0.01 | 71 | 1009.6 |
| 20260507002552 | 70 | 194 | 3.0 | 3.0 | 0.00 | 0.01 | 0.01 | 70 | 1009.5 |
| 20260507002048 | 70 | 217 | 4.0 | 4.0 | 0.00 | 0.01 | 0.01 | 71 | 1009.4 |
| 20260507001544 | 70 | 205 | 6.0 | 7.0 | 0.00 | 0.01 | 0.01 | 70 | 1009.3 |
| 20260507001042 | 71 | 204 | 4.0 | 4.0 | 0.00 | 0.01 | 0.01 | 70 | 1009.4 |
| 20260507000538 | 71 | 207 | 5.0 | 7.0 | 0.00 | 0.01 | 0.01 | 69 | 1009.3 |
| 20260507000033 | 71 | 234 | 9.0 | 13.0 | 0.00 | 0.01 | 0.01 | 70 | 1009.2 |
| 20260506235531 | 71 | 219 | 6.0 | 7.0 | 0.00 | 0.01 | 0.01 | 70 | 1009.2 |
| 20260506235027 | 70 | 211 | 4.0 | 4.0 | 0.00 | 0.01 | 0.01 | 72 | 1009.1 |
| 20260506234525 | 70 | 204 | 4.0 | 4.0 | 0.00 | 0.01 | 0.01 | 72 | 1009.3 |
| 20260506234022 | 70 | 192 | 6.0 | 7.0 | 0.00 | 0.01 | 0.01 | 72 | 1009.2 |
| 20260506233518 | 70 | 191 | 5.0 | 6.0 | 0.00 | 0.01 | 0.01 | 73 | 1009.1 |
| 20260506233015 | 70 | 194 | 3.0 | 4.0 | 0.00 | 0.01 | 0.01 | 73 | 1009.0 |
| 20260506232511 | 71 | 147 | 6.0 | 8.0 | 0.00 | 0.01 | 0.01 | 72 | 1008.9 |
| 20260506232007 | 71 | 198 | 4.0 | 4.0 | 0.00 | 0.01 | 0.01 | 71 | 1008.9 |